Location: Unspecified
(0.0000°N, 0.0000°E)
Time: 17:47:48
(UTC+00:00)

STARLINK 1050 - Pass Details

Date: 20 January 2020
Orbit: 548 x 551 km, 53.0° (Epoch: 17 January)

Event Time Altitude Azimuth Distance (km) Brightness Sun altitude
Rises 04:42:10 0° 189° (S) 2,714 7.3 -20.7°
Reaches altitude 10° 04:44:54 10° 171° (S) 1,818 6.6 -20.1°
Maximum altitude 04:47:54 19° 125° (SE) 1,324 6.5 -19.4°
Drops below altitude 10° 04:50:53 10° 78° (ENE) 1,812 7.1 -18.7°
Sets 04:53:35 0° 60° (ENE) 2,701 7.7 -18.1°
